This is the latest recevied weather packets stored in our database for station/object W2SBL-1. If no packets are shown the sender has not sent any weather packets the latest 1 day(s).
| Time | Temp. | Humidity | Pressure | Rain* | Wind** | Luminosity | Snow |
|---|---|---|---|---|---|---|---|
| 1778048853 | 16.67° C | 49% | 1011.4 hPa | - | - | - | - |
| 1778047953 | 16.67° C | 48% | 1011.4 hPa | - | - | - | - |
| 1778045252 | 17.22° C | 48% | 1011.4 hPa | - | - | - | - |
| 1778043452 | 17.22° C | 48% | 1011.5 hPa | - | - | - | - |
| 1778042552 | 17.22° C | 48% | 1011.4 hPa | - | - | - | - |
| 1778041652 | 17.22° C | 48% | 1011.5 hPa | - | - | - | - |
| 1778040752 | 17.22° C | 48% | 1011.6 hPa | - | - | - | - |
| 1778039852 | 17.22° C | 48% | 1011.7 hPa | - | - | - | - |
| 1778038952 | 17.22° C | 48% | 1011.7 hPa | - | - | - | - |
| 1778038052 | 17.22° C | 48% | 1011.8 hPa | - | - | - | - |
| 1778037152 | 17.22° C | 48% | 1011.6 hPa | - | - | - | - |
| 1778034451 | 17.22° C | 48% | 1011.9 hPa | - | - | - | - |
| 1778032651 | 17.22° C | 48% | 1017 hPa | - | - | - | - |
| 1778031751 | 17.22° C | 48% | 1011.6 hPa | - | - | - | - |
| 1778030851 | 17.78° C | 48% | 1011.4 hPa | - | - | - | - |
| 1778029951 | 17.78° C | 48% | 1011.1 hPa | - | - | - | - |
| 1778029051 | 17.78° C | 48% | 1011 hPa | - | - | - | - |
| 1778028151 | 17.78° C | 48% | 1010.9 hPa | - | - | - | - |
| 1778027251 | 18.33° C | 48% | 1010.6 hPa | - | - | - | - |
| 1778026351 | 18.33° C | 48% | 1010.5 hPa | - | - | - | - |
| 1778025451 | 18.33° C | 49% | 1010.3 hPa | - | - | - | - |
| 1778024551 | 18.33° C | 49% | 1009.9 hPa | - | - | - | - |
| 1778020050 | 20.56° C | 48% | 1009.5 hPa | - | - | - | - |
| 1778018250 | 22.22° C | 46% | 1009.4 hPa | - | - | - | - |
| 1778016450 | 23.33° C | 46% | 1008.9 hPa | - | - | - | - |
* Rain since midnight (hover to see other rain measurements)
** Current wind speed in m/s (hover to see current wind gust speed)